Kilimanjaro, Tanzania

2:41 PM EAT on November 19, 2017 (GMT +0300)
Kilimanjaro

Weather History for HTKJ - October, 2013

Change the Weather History Date:

Monday, October 7, 2013

  Actual Average Record
Temperature  
Mean Temperature 76 °F -  
Max Temperature 88 °F - - ()
Min Temperature 64 °F - - ()
Cooling Degree Days 11    
Growing Degree Days 26 (Base 50)    
Moisture  
Dew Point 58 °F    
Average Humidity 59    
Maximum Humidity 88    
Minimum Humidity 26    
Precipitation  
Precipitation 0.00 in - - ()
Sea Level Pressure  
Sea Level Pressure 30.05 in    
Wind  
Wind Speed 7 mph ()    
Max Wind Speed 17 mph    
Max Gust Speed -    
Visibility 9.0 miles    
Events      
T = Trace of Precipitation, MM = Missing Value Source: Averaged Metar Reports

Daily Weather History Graph

Daily Weather History Graph

Search for Another Location

Airport or City:

Trip Planner

Search our weather history database for the weather conditions in past years. The results will help you decide how hot, cold, wet, or windy it might be!

Date:

Astronomy

Oct. 07, 2013 Rise Set
Actual Time 6:14 AM EAT 6:24 PM EAT
Civil Twilight 5:54 AM EAT 6:45 PM EAT
Nautical Twilight 5:29 AM EAT 7:09 PM EAT
Astronomical Twilight 5:05 AM EAT 7:33 PM EAT
Moon 8:02 AM EAT (10/7) 8:36 PM EAT (10/7)
Length of Visible Light 12h 50m
Length of Day
12h 09m
Waxing Crescent, 7% of the Moon is Illuminated
Oct 7
Waxing Crescent
Oct 12
First Quarter
Oct 19
Full
Oct 27
Last Quarter
Nov 3
New

Hourly Weather History & Observations

Time (EAT) Temp. Heat Index Dew Point Humidity Pressure Visibility Wind Dir Wind Speed Gust Speed Precip Events Conditions
12:00 AM 69 °F - 61 °F 68%  in 19 mi East 10.4 mph - -   Scattered Clouds
12:00 AM 69.8 °F - 60.8 °F 73% 30.09 in 6.2 mi East 10.4 mph - N/A   Scattered Clouds
1:00 AM 69.8 °F - 60.8 °F 73% 30.06 in 6.2 mi ESE 6.9 mph - N/A   Scattered Clouds
2:00 AM 69.8 °F - 60.8 °F 73% 30.06 in 6.2 mi ESE 5.8 mph - N/A   Scattered Clouds
3:00 AM 66 °F - 60 °F 74%  in 19 mi SSE 3.5 mph - -   Partly Cloudy
3:00 AM 66.2 °F - 59.0 °F 78% 30.06 in 6.2 mi SSE 3.5 mph - N/A   Scattered Clouds
4:00 AM 66.2 °F - 60.8 °F 83% 30.06 in 6.2 mi Calm Calm - N/A   Scattered Clouds
5:00 AM 66.2 °F - 62.6 °F 88% 30.06 in 6.2 mi Calm Calm - N/A   Scattered Clouds
6:00 AM 66 °F - 60 °F 75%  in 19 mi Calm Calm - -   Partly Cloudy
6:00 AM 66.2 °F - 59.0 °F 78% 30.06 in 6.2 mi Calm Calm - N/A   Scattered Clouds
7:00 AM 64.4 °F - 60.8 °F 88% 30.09 in 6.2 mi Calm Calm - N/A   Scattered Clouds
8:00 AM 69.8 °F - 60.8 °F 73% 30.12 in 6.2 mi SSE 6.9 mph - N/A   Scattered Clouds
10:00 AM 75.2 °F - 60.8 °F 61% 30.12 in 6.2 mi Calm Calm - N/A   Mostly Cloudy
11:00 AM 77.0 °F - 59.0 °F 54% 30.12 in 6.2 mi East 9.2 mph - N/A   Mostly Cloudy
12:00 PM 82.4 °F 81.7 °F 55.4 °F 39% 30.09 in 6.2 mi East 11.5 mph - N/A   Mostly Cloudy
1:00 PM 87.8 °F 86.1 °F 55.4 °F 33% 30.06 in 6.2 mi SSE 11.5 mph - N/A   Mostly Cloudy
3:00 PM 87 °F - 70 °F 49% 29.96 in 19 mi SE 17.3 mph - -   Scattered Clouds
3:00 PM 87.8 °F - 50.0 °F 27% 29.98 in 6.2 mi ESE 11.5 mph - N/A   Scattered Clouds
4:00 PM 87.8 °F - 51.8 °F 29% 29.98 in 6.2 mi East 13.8 mph - N/A   Scattered Clouds
5:00 PM 84.2 °F 82.8 °F 53.6 °F 35% 29.98 in 6.2 mi East 13.8 mph - N/A   Scattered Clouds
6:00 PM 84 °F - 54 °F 26%  in 19 mi East 17.3 mph - -   Partly Cloudy
6:00 PM 84.2 °F 82.8 °F 53.6 °F 35% 29.98 in 6.2 mi East 17.3 mph - N/A   Scattered Clouds
8:00 PM 77.0 °F - 55.4 °F 47% 30.01 in 6.2 mi East 11.5 mph - N/A   Partly Cloudy
9:00 PM 76 °F - 57 °F 41%  in 19 mi East 17.3 mph - -   Scattered Clouds
9:00 PM 77.0 °F - 57.2 °F 50% 30.04 in 6.2 mi East 17.3 mph - N/A   Partly Cloudy
10:00 PM 73.4 °F - 59.0 °F 61% 30.06 in 6.2 mi East 17.3 mph - N/A   Partly Cloudy
11:00 PM 71.6 °F - 60.8 °F 69% 30.06 in 6.2 mi East 11.5 mph - N/A   Partly Cloudy